Volver al catálogo

COSMOS 1275 DEB

ActivoPO
NORAD 20100·DEBRIS·🇷🇺 Russia

Lanzado Jun 4, 1981 desde Plesetsk Cosmodrome

Loading…

Próximos Pases (próximas 24 horas)

TLE

ActualizadoSource: Space-Track

Época: Sep 14, 2026, 06:27 UTC

1 20100U 81053ML  26257.26926249  .00000067  00000-0  83704-4 0  9991
2 20100  82.8981   6.0933 0172185 157.1511 231.6179 13.43334107867073

Sigue COSMOS 1275 DEB en tiempo real con AllMySat

Download on the App Store